www.pogodaiklimat.ru
ПОГОДА в Гуиннере
Время
и дата
17:35 26.01
17:55 26.01
18:15 26.01
18:35 26.01
18:55 26.01
19:15 26.01
19:35 26.01
19:55 26.01
20:15 26.01
20:35 26.01
20:55 26.01
21:15 26.01
21:35 26.01
21:55 26.01
22:15 26.01
22:35 26.01
22:55 26.01
23:15 26.01
23:35 26.01
23:55 26.01
00:15 27.01
00:35 27.01
00:55 27.01
01:15 27.01
01:35 27.01
01:55 27.01
02:15 27.01
02:35 27.01
02:55 27.01
03:15 27.01
03:35 27.01
03:55 27.01
04:15 27.01
04:35 27.01
04:55 27.01
05:15 27.01
05:35 27.01
05:55 27.01
06:15 27.01
06:35 27.01
06:55 27.01
07:15 27.01
07:35 27.01
07:55 27.01
08:15 27.01
08:35 27.01
08:55 27.01
09:15 27.01
Ветер
(напр.,м/с)
Видим. Явления Облачность Т
(С)
Тd
(С)
f
(%)
Тe
(С)
Тes
(С)
Комфортность P
(гПа)
Po
(гПа)
Тmin
(С)
Tmax
(С)
R
(мм)
R24
(мм)
S
(см)
СВ 2 14 км 10/10 1020 м -16.0 -17.0 92 -25 -25 979.5
СВ 2 16 км 10/10 1020 м -16.0 -17.0 92 -25 -25 979.8
СВ 2 14 км 10/5 990 м
[Ac]
-17.0 -17.0 100 -26 -26 979.8
СВ 2 16 км 10/5 150 м
[Ac]
-17.0 -18.0 92 -26 -26 980.2
СВ 2 16 км 10/5 180 м
[Ac]
-17.0 -18.0 92 -26 -26 980.2
СВ 2 16 км 10/2 120 м
[Ac]
-17.0 -18.0 92 -26 -26 980.5
СВ 2 16 км 10/5 120 м
[Ac]
-17.0 -18.0 92 -25 -25 980.5
СВ 2 16 км 10/5 150 м
[Ac]
-17.0 -18.0 92 -26 -26 980.5
СВ 2 16 км 10/5 120 м
[Ac]
-17.0 -18.0 92 -26 -26 980.8
СВ 2 16 км 10/2 1500 м
[Ac]
-17.0 -18.0 92 -26 -26 980.8
СВ 2 16 км 10/5 150 м
[Ac]
-17.0 -18.0 92 -26 -26 981.1
СВ 2 16 км 10/5 150 м
[Ac]
-17.0 -18.0 92 -26 -26 981.1
СВ 3 14 км 10/5 150 м
[Ac]
-18.0 -18.0 100 -28 -28 981.1
СВ 2 16 км 10/5 150 м
[Ac]
-18.0 -19.0 92 -28 -28 981.1
СВ 2 16 км 10/8 150 м
[Ac]
-18.0 -19.0 92 -28 -28 981.5
СВ 2 16 км 10/8 120 м
[Ac]
-18.0 -19.0 92 -28 -28 981.8
СВ 2 16 км 10/10 150 м -18.0 -19.0 92 -28 -28 981.8
СВ 3 16 км 10/10 120 м -19.0 -20.0 92 -30 -30 982.1
СВ 2 16 км 10/8 120 м
[Ac]
-19.0 -20.0 92 -29 -29 982.1
СВ 2 14 км 10/5 120 м
[Ac]
-19.0 -20.0 92 -29 -29 982.4
С 2 16 км 10/8 180 м
[Ac]
-19.0 -20.0 92 -29 -29 982.4
СВ 2 16 км 10/10 180 м -19.0 -21.0 84 -29 -29 982.8
СВ 2 11 км 10/10 870 м -19.0 -21.0 84 -29 -29 982.8
СВ 3 10 км дымка 10/10 810 м -20.0 -21.0 92 -31 -31 опасность
обморожения
982.8
СВ 3 8 км дымка 10/10 780 м -20.0 -21.0 92 -31 -31 опасность
обморожения
982.8
СВ 3 8 км дымка 10/10 810 м -20.0 -21.0 92 -31 -31 опасность
обморожения
982.8
СВ 3 10 км дымка 10/10 750 м -20.0 -21.0 92 -31 -31 опасность
обморожения
982.8
СВ 2 11 км 10/10 990 м -20.0 -21.0 92 -30 -30 983.1
СВ 2 13 км 10/10 960 м -20.0 -21.0 92 -30 -30 983.1
СВ 2 13 км 10/10 1050 м -20.0 -21.0 92 -30 -30 983.1
СВ 2 14 км 10/10 300 м -20.0 -21.0 92 -30 -30 983.1
СВ 2 14 км 10/10 300 м -20.0 -21.0 92 -30 -30 983.1
СВ 2 16 км 10/8 270 м
[Ac]
-20.0 -21.0 92 -30 -30 983.4
С 1 16 км 10/10 210 м -20.0 -21.0 92 -28 -28 983.7
СВ 2 16 км 10/10 150 м -20.0 -21.0 92 -29 -29 983.7
СВ 2 16 км 10/10 150 м -20.0 -21.0 92 -30 -30 983.7
СВ 2 16 км 10/10 120 м -20.0 -21.0 92 -30 -30 983.7
СВ 2 16 км 10/10 90 м -20.0 -21.0 92 -30 -30 983.4
СВ 2 16 км 10/10 90 м -20.0 -21.0 92 -29 -29 983.7
СВ 2 16 км 10/10 90 м -20.0 -21.0 92 -30 -30 983.7
СВ 2 16 км 10/10 90 м -20.0 -21.0 92 -29 -29 984.0
СВ 2 16 км 10/10 90 м -20.0 -21.0 92 -29 -29 984.0
СВ 2 16 км 10/10 90 м -20.0 -21.0 92 -29 -29 984.0
СВ 2 16 км 10/8 90 м
[Ac]
-20.0 -21.0 92 -29 -29 984.0
СВ 2 16 км 10/5 90 м
[Ac]
-20.0 -21.0 92 -29 -29 984.4
СВ 2 16 км 10/5 90 м
[Ac]
-20.0 -21.0 92 -29 -29 984.4
СВ 2 16 км 10/2 120 м
[Ac]
-20.0 -21.0 92 -29 -29 984.7
СВ 2 16 км 10/0 2100 м
[Ac]
-19.0 -21.0 84 -28 -28 984.7
Местоположение метеостанции Gwinner-Roger Melroe Field Airport: широта 46.2187 долгота -97.6435 высота над уровнем моря 386 м.
В архиве по умолчанию представлена погода в Гуиннере за последние 1-2 суток. Обновление информации о фактической погоде в базе происходит ежечасно! Архивные данные за месяц целиком и за предыдущие месяцы Вы можете получить, выбрав интересующий диапазон дат из раскрывающегося списка и нажав кнопку "Ввод!".
Внимание! Архив погоды МЕТАР в базе сайта по станциям, не включенным в климатический монитор, хранится не более 60 дней. Нет смысла пытаться выбрать более раннюю дату.
*Определитесь, кто Вы:
Внимание! Время в таблицах - местное (без учета летнего времени). Для получения всемирного времени необходимо вычесть поправку, которая равна -6 ч.
Смотрите также архив погоды в соседних городах и на ближайших метеорологических станциях:
Партнеры нашего сайта: авто с сша      
Пояснения к столбцам:
  • Ветер - указаны скорость ветра в м/с - средняя за 10 мин, порывы в срок и между сроками (в фигурных скобках) и направление, откуда дует ветер: С - северный,
  • СВ - северо-восточный, В - восточный, ЮВ - юго-восточный, Ю - южный, ЮЗ - юго-западный, З - западный, СЗ - северо-западный.
  • Видимость - горизонтальная дальность видимости в метрах или километрах. При видимости от 1 до 10 км при отсутствии осадков обычно наблюдается дымка, при ухудшении видимости до 1 км и менее - туман. В сухую погоду видимость может ухудшаться дымом, пылью или мглою.
  • Явления - указаны атмосферные явления, наблюдавшиеся в срок или в последний час перед сроком; фигурными скобками обозначены явления, наблюдавшиеся между сроками (за 1-3 часа до срока); квадратными скобками обозначены град или гололедные отложения с указанием их диаметра в мм.
  • Облачность - указаны через наклонную черту общая и нижняя облачность в баллах и высота нижней границы облаков в метрах; квадратными скобками обозначены формы облаков: Ci - перистые, Cs - перисто-слоистые, Cc - перисто-кучевые, Ac - высококучевые, As - высокослоистые, Sc - слоисто-кучевые, Ns - слоисто-дождевые, Cu - кучевые, Cb - кучево-дождевые. Подробнее классификацию облаков см. в Атласе облаков (PDF).
  • T - Температура воздуха - температура, измеренная на высоте 2 м над землей.
  • Td - Температура точки росы - температура, при понижении до которой содержащийся в воздухе водяной пар достигнет насыщения.
  • f - Относительная влажность воздуха - влажноcть воздуха, измеренная на высоте 2 м над землей.
  • Te - Эффективная температура - температура, которую ощущает одетый по сезону человек в тени. Характеристика душности погоды. При расчете учитывается влияние влажности воздуха и скорости ветра на теплоощущения человека.
  • Tes - Эффективная температура на солнце - температура, которую ощущает человек, с поправкой на солнечный нагрев. Характеристика знойности погоды. Зависит от высоты солнца над горизонтом, облачности и скорости ветра. Ночью, в пасмурную погоду, а также при ветре 12 м/с и более поправка равна нулю.
  • P - Атмосферное давление - приведенное к уровню моря атмосферное давление.
  • Po - Атмосферное давление - измеренное на уровне метеостанции атмосферное давление.
  • Tmin - Минимальная температура - минимум температуры воздуха на высоте 2 м над землей.
  • Tmax - Максимальная температура - максимум температуры воздуха на высоте 2 м над землей.
  • R - Количество осадков - Количество выпавших осадков за период времени, мм. При наведении курсора мыши на число - период времени, за который выпало указанное количество осадков.
  • R24 - Количество осадков - Количество выпавших осадков за 24 часа, мм.
  • S - Снежный покров - Высота снежного покрова, см. При наведении курсора мыши на число - состояние снежного покрова и степень покрытия местности в баллах.